FW5702 Weather Reports


Display with metric or nautical units.
time (UTC)temp
F
wind
direction
speed
MPH
gust
MPH
rain 1hr
in
rain 24hr
in
rain mn
in
humidity
%
barometer
mb
20240225210106 34 37 0.0 3.0 0.00 0.00 0.00 41 1015.4
20240225204609 32 0 0.0 1.0 0.00 0.00 0.00 39 1015.6
20240225203101 33 0 0.0 2.0 0.00 0.00 0.00 39 1015.9
20240225201558 29 38 1.0 3.0 0.00 0.00 0.00 45 1016.3
20240225200101 28 38 1.0 3.0 0.00 0.00 0.00 45 1016.5
20240225194556 27 39 1.0 3.0 0.00 0.00 0.00 47 1017.1
20240225193108 26 37 2.0 4.0 0.00 0.00 0.00 47 1017.3
20240225191602 26 0 0.0 0.0 0.00 0.00 0.00 47 1017.9
20240225190101 23 0 0.0 3.0 0.00 0.00 0.00 49 1018.2
20240225184557 23 40 1.0 3.0 0.00 0.00 0.00 50 1018.5
20240225183101 21 40 1.0 4.0 0.00 0.00 0.00 52 1018.9
20240225181559 19 41 2.0 5.0 0.00 0.00 0.00 55 1019.1
20240225180055 18 61 2.0 5.0 0.00 0.00 0.00 56 1019.4
20240225174603 17 60 3.0 4.0 0.00 0.00 0.00 58 1019.5
20240225173101 15 61 3.0 4.0 0.00 0.00 0.00 61 1019.9
20240225171554 14 65 2.0 5.0 0.00 0.00 0.00 62 1019.9
20240225170104 13 62 1.0 5.0 0.00 0.00 0.00 61 1020.1
20240225164606 11 59 2.0 6.0 0.00 0.00 0.00 62 1020.3
20240225163112 10 52 0.0 4.0 0.00 0.00 0.00 63 1020.4
20240225161553 9 0 0.0 2.0 0.00 0.00 0.00 63 1020.5
20240225160105 7 0 1.0 3.0 0.00 0.00 0.00 64 1020.5
20240225154601 7 57 1.0 3.0 0.00 0.00 0.00 66 1020.6
20240225153059 5 52 0.0 4.0 0.00 0.00 0.00 65 1020.6
20240225151557 2 0 0.0 0.0 0.00 0.00 0.00 64 1020.4
20240225150058 1 19 2.0 3.0 0.00 0.00 0.00 65 1020.4
20240225144601 0 19 2.0 3.0 0.00 0.00 0.00 65 1020.1
20240225143057 -2 5 2.0 3.0 0.00 0.00 0.00 65 1020.0
20240225141601 -3 360 1.0 3.0 0.00 0.00 0.00 64 1020.0
20240225140101 -3 0 0.0 3.0 0.00 0.00 0.00 64 1020.0
20240225134557 -3 5 0.0 4.0 0.00 0.00 0.00 64 1019.7
20240225133106 -3 41 2.0 4.0 0.00 0.00 0.00 64 1019.4
20240225131614 -2 0 0.0 1.0 0.00 0.00 0.00 65 1019.4
20240225130104 -2 43 1.0 2.0 0.00 0.00 0.00 64 1019.2
20240225124607 -2 42 0.0 3.0 0.00 0.00 0.00 64 1019.2
20240225123110 -2 43 0.0 2.0 0.00 0.00 0.00 64 1019.0
20240225121600 -1 43 1.0 2.0 0.00 0.00 0.00 65 1019.2
20240225120057 -1 0 0.0 2.0 0.00 0.00 0.00 65 1019.1
20240225114554 -1 43 0.0 2.0 0.00 0.00 0.00 64 1018.8
20240225113055 -1 42 1.0 2.0 0.00 0.00 0.00 64 1019.0
20240225111559 0 44 2.0 3.0 0.00 0.00 0.00 66 1018.8
20240225110100 0 5 1.0 3.0 0.00 0.00 0.00 65 1018.8
20240225104604 0 0 2.0 3.0 0.00 0.00 0.00 65 1018.9
20240225103113 0 352 0.0 2.0 0.00 0.00 0.00 65 1018.7
20240225101600 0 352 1.0 3.0 0.00 0.00 0.00 65 1018.6
20240225100105 1 0 0.0 2.0 0.00 0.00 0.00 65 1018.7
20240225094605 2 326 1.0 3.0 0.00 0.00 0.00 66 1018.9
20240225093056 1 0 0.0 3.0 0.00 0.00 0.00 66 1018.8
20240225091601 1 291 1.0 3.0 0.00 0.00 0.00 65 1018.8
20240225090104 1 225 0.0 2.0 0.00 0.00 0.00 66 1018.9
20240225084601 1 0 1.0 3.0 0.00 0.00 0.00 65 1019.0
20240225083106 2 225 1.0 3.0 0.00 0.00 0.00 66 1019.1
20240225081555 3 223 1.0 4.0 0.00 0.00 0.00 66 1018.8
20240225080055 3 0 0.0 3.0 0.00 0.00 0.00 66 1019.0
20240225074612 4 222 0.0 3.0 0.00 0.00 0.00 66 1018.9
20240225073101 4 223 1.0 2.0 0.00 0.00 0.00 67 1019.0
20240225071558 5 223 2.0 3.0 0.00 0.00 0.00 67 1018.8
20240225070104 5 219 0.0 3.0 0.00 0.00 0.00 67 1018.8
20240225064608 5 219 0.0 5.0 0.00 0.00 0.00 66 1018.9
20240225063059 6 37 1.0 4.0 0.00 0.00 0.00 67 1018.9
20240225061609 6 37 1.0 3.0 0.00 0.00 0.00 67 1019.0
20240225060059 7 0 0.0 4.0 0.00 0.00 0.00 67 1019.0
20240225054607 7 37 2.0 3.0 0.00 0.00 0.00 67 1018.9
20240225053103 8 0 2.0 3.0 0.00 0.00 0.00 67 1018.9
20240225051604 9 0 0.0 5.0 0.00 0.00 0.00 67 1019.0
20240225050109 9 31 1.0 3.0 0.00 0.00 0.00 67 1018.9
20240225044608 9 0 0.0 4.0 0.00 0.00 0.00 66 1018.8
20240225043101 11 30 1.0 3.0 0.00 0.00 0.00 67 1019.0
20240225041610 12 36 0.0 3.0 0.00 0.00 0.00 67 1018.9
20240225040100 11 36 1.0 3.0 0.00 0.00 0.00 65 1018.8
20240225034612 13 36 1.0 4.0 0.00 0.00 0.00 65 1018.8
20240225033106 13 0 0.0 0.0 0.00 0.00 0.00 67 1018.7
20240225031607 13 0 0.0 0.0 0.00 0.00 0.00 66 1018.8
20240225030058 13 0 0.0 0.0 0.00 0.00 0.00 65 1018.8
20240225024610 14 0 0.0 0.0 0.00 0.00 0.00 65 1018.8
20240225023114 15 279 0.0 3.0 0.00 0.00 0.00 64 1018.7
20240225021604 17 0 0.0 0.0 0.00 0.00 0.00 62 1018.6
20240225020054 18 0 0.0 0.0 0.00 0.00 0.00 63 1018.7
20240225014555 19 0 0.0 2.0 0.00 0.00 0.00 60 1018.7
20240225013052 21 279 0.0 2.0 0.00 0.00 0.00 60 1018.6
20240225011559 23 0 0.0 0.0 0.00 0.00 0.00 56 1018.5
20240225010103 25 0 0.0 3.0 0.00 0.00 0.00 53 1018.3
20240225004557 26 279 0.0 3.0 0.00 0.00 0.00 52 1018.3
20240225003109 27 0 0.0 1.0 0.00 0.00 0.00 51 1018.3
20240225001558 28 279 1.0 4.0 0.00 0.00 0.00 49 1018.2
20240225000101 30 279 2.0 4.0 0.00 0.00 0.00 47 1018.2
20240224234606 31 279 1.0 3.0 0.00 0.00 0.00 45 1018.1
20240224233107 31 279 2.0 3.0 0.00 0.00 0.00 45 1018.1
20240224231559 31 279 2.0 4.0 0.00 0.00 0.00 45 1018.3
20240224230057 31 279 2.0 4.0 0.00 0.00 0.00 45 1018.4
20240224224602 32 279 1.0 3.0 0.00 0.00 0.00 45 1018.6
20240224223059 32 279 1.0 3.0 0.00 0.00 0.00 45 1018.6
20240224221556 31 279 3.0 6.0 0.00 0.00 0.00 47 1018.9
20240224220055 32 283 1.0 6.0 0.00 0.00 0.00 47 1018.9
20240224214555 30 275 4.0 7.0 0.00 0.00 0.00 47 1019.2
20240224213058 30 272 4.0 7.0 0.00 0.00 0.00 49 1019.3
20240224211602 29 272 4.0 7.0 0.00 0.00 0.00 48 1019.4